KQ4OSL Weather Reports


time (UTC)temp
F
wind
direction
speed
knots
gust
knots
rain 1hr
in
rain 24hr
in
rain mn
in
humidity
%
barometer
mb
20260505171237 73 270 6.1 7.8 0.00 0.00 0.00 49 1017.7
20260505170734 73 221 5.2 7.0 0.00 0.00 0.00 47 1017.5
20260505170231 73 249 4.3 5.2 0.00 0.00 0.00 51 1017.4
20260505165726 73 187 2.6 4.3 0.00 0.00 0.00 50 1017.5
20260505165223 73 170 6.1 6.1 0.00 0.00 0.00 47 1017.7
20260505164718 73 196 3.5 5.2 0.00 0.00 0.00 50 1017.7
20260505164215 73 152 6.1 7.8 0.00 0.00 0.00 50 1017.7
20260505163713 73 220 2.6 5.2 0.00 0.00 0.00 51 1017.7
20260505163212 72 243 1.7 1.7 0.00 0.00 0.00 53 1018.1
20260505162709 72 262 3.5 5.2 0.00 0.00 0.00 53 1018.1
20260505162206 72 189 5.2 7.8 0.00 0.00 0.00 52 1017.9
20260505161702 71 238 5.2 7.0 0.00 0.00 0.00 54 1017.9
20260505161200 72 164 8.7 9.6 0.00 0.00 0.00 54 1017.6
20260505160658 72 288 6.1 7.0 0.00 0.00 0.00 54 1017.6
20260505160155 71 241 3.5 5.2 0.00 0.00 0.00 54 1017.4
20260505153134 71 275 6.1 7.8 0.00 0.00 0.00 51 1017.9
20260505152631 72 242 6.1 7.8 0.00 0.00 0.00 49 1018.1
20260505152127 71 232 2.6 4.3 0.00 0.00 0.00 53 1018.1
20260505151622 72 193 2.6 4.3 0.00 0.00 0.00 52 1018.0
20260505151120 72 256 7.8 8.7 0.00 0.00 0.00 51 1017.9
20260505150616 71 232 5.2 7.8 0.00 0.00 0.00 51 1017.8
20260505150113 71 250 2.6 4.3 0.00 0.00 0.00 56 1017.7
20260505140541 68 270 0.9 0.9 0.00 0.00 0.00 65 1017.5
20260505124955 58 309 0.9 0.9 0.00 0.00 0.00 83 1017.2
20260505124452 58 304 0.9 0.9 0.00 0.00 0.00 84 1017.1
20260505123947 57 285 0.0 0.9 0.00 0.00 0.00 84 1016.9
20260505123444 57 303 0.0 0.0 0.00 0.00 0.00 84 1016.8
20260505122940 56 297 0.0 0.9 0.00 0.00 0.00 85 1016.8
20260505122438 54 271 0.0 0.0 0.00 0.00 0.00 89 1016.8
20260505121934 52 280 0.0 0.0 0.00 0.00 0.00 92 1016.5
20260505121432 51 300 1.7 1.7 0.00 0.00 0.00 94 1016.9
20260505120927 50 278 0.0 0.0 0.00 0.00 0.00 98 1016.5
20260505120424 48 291 0.9 0.9 0.00 0.00 0.00 99 1016.8
20260505115923 48 280 0.0 0.0 0.00 0.00 0.00 98 1016.3
20260505115420 47 276 0.0 0.0 0.00 0.00 0.00 99 1016.4
20260505114918 47 275 0.0 0.0 0.00 0.00 0.00 99 1016.5
20260505114414 47 285 0.0 0.0 0.00 0.00 0.00 99 1016.4
20260505113910 46 276 0.0 0.0 0.00 0.00 0.00 99 1016.5
20260505113407 46 281 0.0 0.0 0.00 0.00 0.00 99 1016.3
20260505112902 46 269 0.0 0.0 0.00 0.00 0.00 98 1016.3
20260505112401 46 270 0.0 0.0 0.00 0.00 0.00 98 1016.2
20260505111856 47 274 0.0 0.0 0.00 0.00 0.00 99 1016.0
20260505111351 47 294 0.0 0.0 0.00 0.00 0.00 99 1015.9
20260505110847 46 278 0.0 0.0 0.00 0.00 0.00 99 1016.1
20260505110345 46 275 0.0 0.0 0.00 0.00 0.00 99 1016.2
20260505101815 46 277 0.0 0.0 0.00 0.00 0.00 99 1016.0
20260505101310 46 278 0.0 0.0 0.00 0.00 0.00 98 1016.2
20260505100806 46 279 0.0 0.0 0.00 0.00 0.00 98 1016.1
20260505100303 46 282 0.0 0.0 0.00 0.00 0.00 98 1016.2
20260505095759 45 273 0.0 0.0 0.00 0.00 0.00 98 1016.2
20260505095257 46 274 0.0 0.0 0.00 0.00 0.00 98 1016.2
20260505094752 46 275 0.0 0.0 0.00 0.00 0.00 98 1016.1
20260505094249 46 292 0.0 0.0 0.00 0.00 0.00 98 1016.1
20260505093745 46 281 0.0 0.0 0.00 0.00 0.00 98 1016.0
20260505093243 46 275 0.0 0.0 0.00 0.00 0.00 97 1016.2
20260505092739 47 276 0.0 0.0 0.00 0.00 0.00 97 1015.9
20260505092238 47 275 0.0 0.0 0.00 0.00 0.00 97 1016.1
20260505091735 47 275 0.0 0.0 0.00 0.00 0.00 97 1016.0
20260505091233 47 275 0.0 0.0 0.00 0.00 0.00 97 1016.2
20260505090730 47 276 0.0 0.0 0.00 0.00 0.00 97 1016.2
20260505090229 48 292 0.0 0.0 0.00 0.00 0.00 97 1016.4
20260505085725 47 275 0.0 0.0 0.00 0.00 0.00 97 1016.3
20260505085224 47 275 0.0 0.0 0.00 0.00 0.00 97 1016.2
20260505084721 47 275 0.0 0.0 0.00 0.00 0.00 97 1016.5
20260505084220 47 275 0.0 0.0 0.00 0.00 0.00 97 1016.4
20260505083716 47 275 0.0 0.0 0.00 0.00 0.00 97 1016.4
20260505083213 47 275 0.0 0.0 0.00 0.00 0.00 97 1016.6
20260505082709 48 276 0.0 0.0 0.00 0.00 0.00 96 1016.6
20260505082206 47 275 0.0 0.0 0.00 0.00 0.00 96 1016.3
20260505081702 48 275 0.0 0.0 0.00 0.00 0.00 96 1016.2
20260505081200 48 275 0.0 0.0 0.00 0.00 0.00 96 1016.4
20260505080656 48 275 0.0 0.0 0.00 0.00 0.00 96 1016.2
20260505080152 48 275 0.0 0.0 0.00 0.00 0.00 96 1016.2
20260505075648 49 275 0.0 0.0 0.00 0.00 0.00 96 1016.2
20260505075145 48 277 0.0 0.0 0.00 0.00 0.00 95 1016.1
20260505074642 48 280 0.0 0.0 0.00 0.00 0.00 95 1016.1
20260505074139 49 280 0.0 0.0 0.00 0.00 0.00 95 1016.1
20260505073637 49 270 0.0 0.0 0.00 0.00 0.00 95 1016.2
20260505073135 49 270 0.0 0.0 0.00 0.00 0.00 95 1016.0
20260505072630 49 268 0.0 0.0 0.00 0.00 0.00 95 1016.1
20260505072127 48 268 0.0 0.0 0.00 0.00 0.00 95 1016.2
20260505071623 48 267 0.0 0.0 0.00 0.00 0.00 95 1016.1
20260505071121 49 267 0.0 0.0 0.00 0.00 0.00 95 1016.1
20260505070618 49 268 0.0 0.0 0.00 0.00 0.00 95 1016.3
20260505070114 49 268 0.0 0.0 0.00 0.00 0.00 95 1016.4
20260505065610 49 268 0.0 0.0 0.00 0.00 0.00 95 1016.2
20260505065107 49 268 0.0 0.0 0.00 0.00 0.00 94 1016.1
20260505064604 49 267 0.0 0.0 0.00 0.00 0.00 94 1016.1
20260505064102 50 267 0.0 0.0 0.00 0.00 0.00 94 1016.3
20260505063559 50 276 0.0 0.0 0.00 0.00 0.00 93 1016.1
20260505063055 50 276 0.0 0.0 0.00 0.00 0.00 93 1016.0
20260505062551 50 276 0.0 0.0 0.00 0.00 0.00 94 1016.3
20260505062049 50 276 0.0 0.0 0.00 0.00 0.00 94 1016.2
20260505061546 50 276 0.0 0.0 0.00 0.00 0.00 93 1016.4
20260505061044 50 277 0.0 0.0 0.00 0.00 0.00 93 1016.3
20260505060541 50 279 0.0 0.0 0.00 0.00 0.00 93 1016.4
20260505060038 50 284 0.0 0.9 0.00 0.00 0.00 93 1016.3
20260505055533 51 285 0.0 0.0 0.00 0.00 0.00 92 1016.4
20260505055030 51 283 0.0 0.0 0.00 0.00 0.00 92 1016.5
20260505054527 51 279 0.0 0.0 0.00 0.00 0.00 91 1016.6
20260505054025 51 279 0.0 0.0 0.00 0.00 0.00 91 1016.6
20260505053522 51 279 0.0 0.0 0.00 0.00 0.00 90 1016.4
20260505053019 52 278 0.0 0.0 0.00 0.00 0.00 90 1016.4
20260505052516 52 278 0.0 0.0 0.00 0.00 0.00 89 1016.4
20260505052013 52 278 0.0 0.0 0.00 0.00 0.00 89 1016.3
20260505051510 52 277 0.0 0.0 0.00 0.00 0.00 89 1016.6
20260505051008 52 277 0.0 0.0 0.00 0.00 0.00 88 1016.6
20260505050506 52 277 0.0 0.0 0.00 0.00 0.00 89 1016.5
20260505041433 55 276 0.0 0.0 0.00 0.00 0.00 79 1016.4
20260505040931 55 272 0.0 0.0 0.00 0.00 0.00 78 1016.6
20260505040428 56 272 0.0 0.0 0.00 0.00 0.00 77 1016.5
20260505035925 56 272 0.0 0.0 0.00 0.00 0.00 76 1016.4
20260505035421 57 272 0.0 0.0 0.00 0.00 0.00 74 1016.6
20260505034918 57 272 0.0 0.0 0.00 0.00 0.00 73 1016.6
20260505034415 57 272 0.0 0.0 0.00 0.00 0.00 73 1016.5
20260505033912 57 272 0.0 0.0 0.00 0.00 0.00 74 1016.5
20260505033408 56 272 0.0 0.0 0.00 0.00 0.00 74 1016.6
20260505032907 56 272 0.0 0.0 0.00 0.00 0.00 76 1016.5
20260505032403 56 272 0.0 0.0 0.00 0.00 0.00 76 1016.6
20260505031900 57 272 0.0 0.0 0.00 0.00 0.00 76 1016.8
20260505031357 56 272 0.0 0.0 0.00 0.00 0.00 79 1016.6
20260505030854 55 272 0.0 0.0 0.00 0.00 0.00 80 1016.9
20260505030350 55 272 0.0 0.0 0.00 0.00 0.00 84 1016.8
20260505025845 56 272 0.0 0.0 0.00 0.00 0.00 81 1016.9
20260505025343 56 272 0.0 0.0 0.00 0.00 0.00 80 1016.8
20260505024842 56 272 0.0 0.0 0.00 0.00 0.00 80 1016.8
20260505024339 56 272 0.0 0.0 0.00 0.00 0.00 80 1016.9
20260505023836 56 272 0.0 0.0 0.00 0.00 0.00 80 1016.8
20260505023333 57 272 0.0 0.0 0.00 0.00 0.00 79 1016.9
20260505022830 57 272 0.0 0.0 0.00 0.00 0.00 79 1017.0
20260505022327 57 272 0.0 0.0 0.00 0.00 0.00 78 1016.8
20260505021824 56 277 0.0 0.0 0.00 0.00 0.00 81 1016.5
20260505021321 57 267 0.0 0.0 0.00 0.00 0.00 81 1016.5
20260505020816 57 268 0.0 0.0 0.00 0.00 0.00 79 1016.5
20260505020312 57 268 0.0 0.0 0.00 0.00 0.00 78 1016.3
20260505015809 58 268 0.0 0.0 0.00 0.00 0.00 79 1016.3
20260505015306 58 268 0.0 0.0 0.00 0.00 0.00 78 1016.3
20260505014804 58 268 0.0 0.0 0.00 0.00 0.00 77 1016.4
20260505014300 58 267 0.0 0.0 0.00 0.00 0.00 78 1016.5
20260505013757 58 267 0.0 0.0 0.00 0.00 0.00 78 1016.4
20260505013254 58 267 0.0 0.0 0.00 0.00 0.00 78 1016.3
20260505012753 59 268 0.0 0.0 0.00 0.00 0.00 76 1016.2
20260505012250 59 267 0.0 0.0 0.00 0.00 0.00 74 1016.2
20260505011745 60 267 0.0 0.0 0.00 0.00 0.00 74 1016.1
20260505011242 60 267 0.0 0.0 0.00 0.00 0.00 73 1016.2
20260505010738 60 267 0.0 0.0 0.00 0.00 0.00 73 1016.2
20260505010235 60 267 0.0 0.0 0.00 0.00 0.00 72 1016.2
20260505005731 61 267 0.0 0.0 0.00 0.00 0.00 71 1016.1
20260505005228 62 268 0.0 0.0 0.00 0.00 0.00 69 1016.1
20260505004725 63 268 0.0 0.0 0.00 0.00 0.00 67 1016.1
20260505004222 63 268 0.0 0.0 0.00 0.00 0.00 67 1016.0
20260505003719 64 268 0.0 0.0 0.00 0.00 0.00 66 1015.9
20260505003217 64 267 0.0 0.0 0.00 0.00 0.00 67 1015.9
20260505002713 65 267 0.0 0.0 0.00 0.00 0.00 63 1015.8
20260505002211 65 267 0.0 0.0 0.00 0.00 0.00 62 1015.9
20260505001708 66 267 0.0 0.0 0.00 0.00 0.00 59 1015.6
20260505001205 67 267 0.0 0.0 0.00 0.00 0.00 59 1015.8
20260505000702 67 268 0.0 0.0 0.00 0.00 0.00 58 1015.8
20260505000200 68 263 0.0 0.0 0.00 0.00 0.00 57 1015.9
20260504235656 69 263 0.0 0.0 0.00 0.00 0.00 55 1016.0
20260504235152 69 263 0.0 0.0 0.00 0.00 0.00 53 1016.0
20260504234650 70 263 0.0 0.0 0.00 0.00 0.00 52 1016.1
20260504234147 71 263 0.0 0.0 0.00 0.00 0.00 50 1015.8
20260504233643 71 265 0.0 0.0 0.00 0.00 0.00 47 1015.8
20260504233139 72 261 0.0 0.0 0.00 0.00 0.00 46 1016.0
20260504232637 72 259 0.0 0.0 0.00 0.00 0.00 46 1016.0
20260504232133 73 272 1.7 1.7 0.00 0.00 0.00 45 1016.0
20260504231630 73 249 0.9 1.7 0.00 0.00 0.00 45 1015.9
20260504231126 73 252 0.0 0.9 0.00 0.00 0.00 44 1015.9
20260504230622 74 262 1.7 1.7 0.00 0.00 0.00 42 1015.9
20260504230122 74 250 1.7 1.7 0.00 0.00 0.00 42 1015.9
20260504225619 74 243 0.0 0.9 0.00 0.00 0.00 42 1016.0
20260504223431 75 272 2.6 2.6 0.00 0.00 0.00 41 1016.2
20260504222927 75 272 2.6 2.6 0.00 0.00 0.00 41 1016.2
20260504222425 75 272 2.6 2.6 0.00 0.00 0.00 41 1016.2
20260504221923 75 264 0.0 0.0 0.00 0.00 0.00 43 1016.0
20260504221419 75 276 2.6 2.6 0.00 0.00 0.00 41 1016.0
20260504220916 75 271 0.0 0.0 0.00 0.00 0.00 41 1016.0
20260504220413 74 259 1.7 1.7 0.00 0.00 0.00 39 1016.0
20260504215910 75 246 4.3 5.2 0.00 0.00 0.00 39 1016.0
20260504215407 75 239 3.5 4.3 0.00 0.00 0.00 39 1016.1
20260504214903 75 252 2.6 2.6 0.00 0.00 0.00 39 1015.9
20260504214400 76 260 2.6 4.3 0.00 0.00 0.00 42 1016.1
20260504213856 76 249 0.0 0.0 0.00 0.00 0.00 41 1016.0
20260504213352 75 232 1.7 1.7 0.00 0.00 0.00 40 1015.8
20260504212850 76 260 2.6 4.3 0.00 0.00 0.00 40 1016.1
20260504212346 75 256 0.9 0.9 0.00 0.00 0.00 39 1016.0
20260504211844 75 144 6.1 7.8 0.00 0.00 0.00 39 1015.9
20260504211339 76 261 4.3 5.2 0.00 0.00 0.00 37 1015.9
20260504210837 76 244 1.7 2.6 0.00 0.00 0.00 40 1015.9
20260504210334 75 251 0.9 1.7 0.00 0.00 0.00 42 1016.0
20260504205831 75 234 1.7 2.6 0.00 0.00 0.00 40 1016.0
20260504205329 76 256 1.7 2.6 0.00 0.00 0.00 42 1016.1
20260504204827 76 263 0.0 0.9 0.00 0.00 0.00 39 1016.0
20260504204325 76 249 2.6 2.6 0.00 0.00 0.00 41 1016.1
20260504203824 76 223 2.6 2.6 0.00 0.00 0.00 45 1016.2
20260504203321 75 289 5.2 6.1 0.00 0.00 0.00 42 1016.1
20260504202816 76 261 0.0 0.0 0.00 0.00 0.00 40 1016.4
20260504202314 78 237 1.7 1.7 0.00 0.00 0.00 41 1016.4
20260504201810 77 243 0.9 1.7 0.00 0.00 0.00 42 1016.3
20260504201308 77 234 2.6 2.6 0.00 0.00 0.00 42 1016.3
20260504200805 75 260 0.0 0.0 0.00 0.00 0.00 45 1016.4
20260504200301 75 221 2.6 2.6 0.00 0.00 0.00 45 1016.4
20260504195757 76 256 2.6 4.3 0.00 0.00 0.00 45 1016.4
20260504195253 75 224 0.9 1.7 0.00 0.00 0.00 44 1016.6
20260504194750 77 275 5.2 6.1 0.00 0.00 0.00 42 1016.9
20260504194247 77 249 1.7 1.7 0.00 0.00 0.00 43 1016.9
20260504193743 77 257 0.9 1.7 0.00 0.00 0.00 43 1016.9
20260504193241 77 286 0.9 0.9 0.00 0.00 0.00 40 1016.8
20260504192739 76 264 0.0 0.0 0.00 0.00 0.00 44 1016.9
20260504192237 77 270 2.6 2.6 0.00 0.00 0.00 38 1017.0
20260504191735 75 192 2.6 2.6 0.00 0.00 0.00 39 1017.2
20260504191232 75 269 2.6 2.6 0.00 0.00 0.00 41 1017.3
20260504190727 77 210 2.6 2.6 0.00 0.00 0.00 37 1017.2
20260504190224 75 248 0.0 0.9 0.00 0.00 0.00 38 1017.4
20260504185720 76 263 2.6 2.6 0.00 0.00 0.00 39 1017.3
20260504185217 76 206 3.5 5.2 0.00 0.00 0.00 39 1017.4
20260504184713 76 267 0.9 0.9 0.00 0.00 0.00 42 1017.7
20260504184209 75 300 1.7 2.6 0.00 0.00 0.00 44 1017.6
20260504183705 76 214 4.3 5.2 0.00 0.00 0.00 42 1017.5
20260504183202 77 266 0.9 1.7 0.00 0.00 0.00 43 1017.6
20260504182700 75 270 0.0 0.0 0.00 0.00 0.00 42 1017.8
20260504182157 75 261 3.5 6.1 0.00 0.00 0.00 43 1017.7
20260504181655 75 352 0.9 1.7 0.00 0.00 0.00 40 1017.9
20260504181152 74 292 0.9 0.9 0.00 0.00 0.00 46 1017.9
20260504180651 74 252 0.9 0.9 0.00 0.00 0.00 43 1018.0
20260504180149 73 185 2.6 2.6 0.00 0.00 0.00 45 1017.9
20260504175646 74 276 0.0 0.0 0.00 0.00 0.00 41 1018.4
20260504175143 73 215 0.9 1.7 0.00 0.00 0.00 45 1018.3
20260504174641 74 240 0.9 1.7 0.00 0.00 0.00 45 1018.4
20260504174137 75 207 2.6 4.3 0.00 0.00 0.00 44 1018.5
20260504173635 75 297 0.9 1.7 0.00 0.00 0.00 43 1018.3
20260504173132 73 23 0.0 0.0 0.00 0.00 0.00 46 1018.6
20260504172628 74 275 1.7 2.6 0.00 0.00 0.00 44 1018.4
20260504172125 74 260 0.0 0.0 0.00 0.00 0.00 51 1018.5
20260504171621 74 274 0.0 0.0 0.00 0.00 0.00 49 1018.5